Hot Springs, VA

5:41 PM EST on December 06, 2016 (GMT -0500)
Ingalls

Weather History for KHSP - August, 2013

Change the Weather History Date:

Wednesday, August 28, 2013

  Actual Average Record
Temperature  
Mean Temperature 68 °F -  
Max Temperature 73 °F 72 °F 84 °F (1998)
Min Temperature 64 °F 58 °F 37 °F (2008)
Cooling Degree Days 4    
Growing Degree Days 18 (Base 50)    
Moisture  
Dew Point 67 °F    
Average Humidity 97    
Maximum Humidity 100    
Minimum Humidity 83    
Precipitation  
Precipitation 1.84 in - - ()
Sea Level Pressure  
Sea Level Pressure 30.13 in    
Wind  
Wind Speed 12 mph (West)    
Max Wind Speed 20 mph    
Max Gust Speed 25 mph    
Visibility 3 miles    
Events Fog , Rain , Thunderstorm    
Averages and records for this station are not official NWS values.
T = Trace of Precipitation, MM = Missing Value Source: NWS Daily Summary

Daily Weather History Graph

Daily Weather History Graph

Search for Another Location

Airport or City:

Trip Planner

Search our weather history database for the weather conditions in past years. The results will help you decide how hot, cold, wet, or windy it might be!

Date:

Astronomy

Aug. 28, 2013 Rise Set
Actual Time 6:45 AM EDT 7:54 PM EDT
Civil Twilight 6:18 AM EDT 8:21 PM EDT
Nautical Twilight 5:46 AM EDT 8:53 PM EDT
Astronomical Twilight 5:12 AM EDT 9:27 PM EDT
Moon No Moon Rise 2:27 PM EDT (8/28)
Length of Visible Light 14h 02m
Length of Day
13h 08m
Waning Gibbous, 47% of the Moon is Illuminated
Aug 28
Waning Gibbous
Sep 5
New
Sep 12
First Quarter
Sep 19
Full
Sep 26
Last Quarter

Hourly Weather History & Observations

Time (EDT) Temp. Dew Point Humidity Pressure Visibility Wind Dir Wind Speed Gust Speed Precip Events Conditions
12:15 AM 66.2 °F 64.4 °F 94% 30.20 in 7.0 mi West 11.5 mph - N/A   Clear
12:35 AM 66.2 °F 64.4 °F 94% 30.20 in 7.0 mi West 13.8 mph - N/A   Clear
12:55 AM 66.2 °F 64.4 °F 94% 30.19 in 7.0 mi West 11.5 mph - N/A   Clear
1:15 AM 66.2 °F 64.4 °F 94% 30.18 in 7.0 mi West 12.7 mph 17.3 mph N/A   Clear
1:35 AM 66.2 °F 64.4 °F 94% 30.18 in 5.0 mi West 12.7 mph - N/A   Clear
1:55 AM 66.2 °F 66.2 °F 100% 30.17 in 5.0 mi West 11.5 mph - N/A   Clear
2:15 AM 66.2 °F 66.2 °F 100% 30.17 in 4.0 mi WNW 12.7 mph - N/A   Scattered Clouds
2:35 AM 64.4 °F 64.4 °F 100% 30.17 in 2.5 mi West 11.5 mph - N/A   Overcast
2:55 AM 64.4 °F 64.4 °F 100% 30.16 in 2.5 mi West 13.8 mph 18.4 mph N/A   Overcast
3:15 AM 64.4 °F 64.4 °F 100% 30.15 in 1.5 mi West 12.7 mph - N/A   Overcast
3:35 AM 66.2 °F 66.2 °F 100% 30.16 in 1.8 mi West 12.7 mph - N/A   Overcast
3:55 AM 66.2 °F 66.2 °F 100% 30.15 in 1.8 mi West 9.2 mph - N/A   Overcast
4:15 AM 66.2 °F 66.2 °F 100% 30.15 in 2.0 mi West 8.1 mph - N/A   Overcast
4:35 AM 66.2 °F 66.2 °F 100% 30.14 in 0.5 mi WSW 10.4 mph 16.1 mph N/A Fog Fog
4:55 AM 66.2 °F 66.2 °F 100% 30.14 in 0.2 mi West 10.4 mph - N/A Fog Fog
5:15 AM 66.2 °F 66.2 °F 100% 30.14 in 0.8 mi West 11.5 mph - N/A   Overcast
5:35 AM 66.2 °F 66.2 °F 100% 30.14 in 1.2 mi West 12.7 mph - N/A   Overcast
5:55 AM 66.2 °F 66.2 °F 100% 30.14 in 1.0 mi West 12.7 mph - N/A   Overcast
6:15 AM 66.2 °F 66.2 °F 100% 30.14 in 0.2 mi West 13.8 mph - N/A Fog Fog
6:35 AM 66.2 °F 66.2 °F 100% 30.15 in 0.2 mi West 12.7 mph - N/A Fog Fog
6:55 AM 66.2 °F 66.2 °F 100% 30.16 in 0.2 mi West 12.7 mph - 0.02 in Rain Rain
7:15 AM 66.2 °F 66.2 °F 100% 30.16 in 0.2 mi West 8.1 mph - 0.07 in Rain Rain
7:35 AM 66.2 °F 66.2 °F 100% 30.16 in 0.2 mi West 8.1 mph - 0.16 in Rain Heavy Rain
7:55 AM 64.4 °F 64.4 °F 100% 30.17 in 0.2 mi West 9.2 mph 18.4 mph 0.29 in Rain Heavy Rain
8:15 AM 64.4 °F 64.4 °F 100% 30.17 in 0.5 mi West 10.4 mph - 0.65 in Rain Heavy Rain
8:35 AM 64.4 °F 64.4 °F 100% 30.17 in 7.0 mi WSW 9.2 mph - 0.77 in Rain Light Rain
8:55 AM 64.4 °F 64.4 °F 100% 30.17 in 4.0 mi West 6.9 mph - 0.02 in Rain Light Rain
9:15 AM 66.2 °F 66.2 °F 100% 30.17 in 4.0 mi West 10.4 mph - 0.04 in Rain Rain
9:35 AM 66.2 °F 66.2 °F 100% 30.17 in 0.2 mi West 11.5 mph - 0.05 in Rain Light Rain
9:55 AM 66.2 °F 66.2 °F 100% 30.17 in 0.2 mi WSW 11.5 mph - N/A Rain Light Rain
10:15 AM 66.2 °F 66.2 °F 100% 30.17 in 0.2 mi West 12.7 mph 18.4 mph N/A Rain Light Rain
10:35 AM 66.2 °F 66.2 °F 100% 30.17 in 0.2 mi West 11.5 mph - N/A Rain Light Rain
10:55 AM 66.2 °F 66.2 °F 100% 30.16 in 0.2 mi West 10.4 mph - N/A Rain Light Rain
11:15 AM 66.2 °F 66.2 °F 100% 30.16 in 0.2 mi West 12.7 mph - N/A Rain Light Rain
11:35 AM 66.2 °F 66.2 °F 100% 30.15 in 0.2 mi West 11.5 mph 18.4 mph N/A Rain Light Rain
11:55 AM 66.2 °F 66.2 °F 100% 30.15 in 0.2 mi West 13.8 mph - N/A Rain Light Rain
12:15 PM 66.2 °F 66.2 °F 100% 30.14 in 0.2 mi West 13.8 mph - N/A Rain Light Rain
12:35 PM 66.2 °F 66.2 °F 100% 30.13 in 0.2 mi West 13.8 mph - N/A Rain Light Rain
12:55 PM 66.2 °F 66.2 °F 100% 30.13 in 0.2 mi West 13.8 mph - N/A Rain Light Rain
1:15 PM 69.8 °F 69.8 °F 100% 30.13 in 0.2 mi West 12.7 mph - N/A Rain Light Rain
1:35 PM 69.8 °F 69.8 °F 100% 30.13 in 1.2 mi West 12.7 mph 17.3 mph N/A Rain Light Rain
1:55 PM 69.8 °F 69.8 °F 100% 30.13 in 2.5 mi West 12.7 mph - N/A   Overcast
2:15 PM 69.8 °F 69.8 °F 100% 30.12 in 5.0 mi West 11.5 mph - N/A   Overcast
2:35 PM 71.6 °F 69.8 °F 94% 30.11 in 5.0 mi West 13.8 mph 17.3 mph N/A   Overcast
2:55 PM 71.6 °F 69.8 °F 94% 30.10 in 7.0 mi West 15.0 mph 19.6 mph N/A   Overcast
3:15 PM 73.4 °F 68.0 °F 83% 30.09 in 7.0 mi West 15.0 mph 23.0 mph N/A   Overcast
3:35 PM 73.4 °F 69.8 °F 88% 30.09 in 7.0 mi West 13.8 mph - N/A   Mostly Cloudy
3:55 PM 71.6 °F 68.0 °F 88% 30.08 in 7.0 mi West 13.8 mph 19.6 mph N/A   Mostly Cloudy
4:15 PM 71.6 °F 69.8 °F 94% 30.08 in 7.0 mi West 13.8 mph - N/A   Overcast
4:35 PM 73.4 °F 69.8 °F 88% 30.07 in 7.0 mi West 11.5 mph 20.7 mph N/A   Mostly Cloudy
4:55 PM 71.6 °F 69.8 °F 94% 30.07 in 7.0 mi WSW 15.0 mph - N/A   Mostly Cloudy
5:15 PM 73.4 °F 68.0 °F 83% 30.07 in 7.0 mi WSW 15.0 mph - N/A Thunderstorm Mostly Cloudy
5:35 PM 73.4 °F 68.0 °F 83% 30.06 in 10.0 mi West 16.1 mph 20.7 mph N/A Thunderstorm Mostly Cloudy
5:55 PM 71.6 °F 66.2 °F 83% 30.07 in 10.0 mi West 18.4 mph 24.2 mph N/A   Mostly Cloudy
6:15 PM 71.6 °F 66.2 °F 83% 30.07 in 7.0 mi West 19.6 mph 25.3 mph N/A Rain Rain
6:35 PM 69.8 °F 68.0 °F 94% 30.06 in 7.0 mi West 16.1 mph 24.2 mph N/A Rain , Thunderstorm Light Thunderstorms and Rain
6:55 PM 68.0 °F 66.2 °F 94% 30.06 in 5.0 mi West 17.3 mph - N/A   Scattered Clouds
7:15 PM 68.0 °F 66.2 °F 94% 30.05 in 10.0 mi West 18.4 mph 23.0 mph N/A Thunderstorm Scattered Clouds
7:35 PM 68.0 °F 66.2 °F 94% 30.05 in 7.0 mi West 11.5 mph 21.9 mph N/A   Mostly Cloudy
7:55 PM 68.0 °F 68.0 °F 100% 30.07 in 7.0 mi West 13.8 mph - N/A Thunderstorm Overcast
8:15 PM 68.0 °F 68.0 °F 100% 30.07 in 7.0 mi West 16.1 mph 23.0 mph N/A Thunderstorm Overcast
8:35 PM 66.2 °F 66.2 °F 100% 30.07 in 4.0 mi West 19.6 mph 23.0 mph 0.02 in Rain , Thunderstorm Light Thunderstorms and Rain
8:55 PM 66.2 °F 66.2 °F 100% 30.07 in 4.0 mi West 18.4 mph 24.2 mph N/A Rain , Thunderstorm Light Thunderstorms and Rain
9:15 PM 68.0 °F 68.0 °F 100% 30.09 in 4.0 mi West 13.8 mph - 0.01 in Rain , Thunderstorm Light Thunderstorms and Rain
9:35 PM 66.2 °F 66.2 °F 100% 30.09 in 0.5 mi West 13.8 mph - 0.13 in Rain , Thunderstorm Light Thunderstorms and Rain
9:55 PM 66.2 °F 66.2 °F 100% 30.10 in 0.2 mi WNW 12.7 mph 18.4 mph 0.24 in Rain , Thunderstorm Heavy Thunderstorms and Rain
10:15 PM 66.2 °F 66.2 °F 100% 30.10 in 0.2 mi West 12.7 mph 19.6 mph 0.44 in Rain Rain
10:35 PM 66.2 °F 66.2 °F 100% 30.10 in 0.2 mi West 11.5 mph - 0.45 in Rain Rain
10:55 PM 66.2 °F 66.2 °F 100% 30.09 in 0.2 mi West 12.7 mph - N/A Rain Light Rain
11:15 PM 66.2 °F 66.2 °F 100% 30.08 in 0.2 mi West 11.5 mph - N/A Rain Rain
11:35 PM 66.2 °F 66.2 °F 100% 30.07 in 0.2 mi West 11.5 mph 18.4 mph N/A Rain Light Rain
11:55 PM 66.2 °F 66.2 °F 100% 30.07 in 0.2 mi West 13.8 mph - N/A Rain Rain